Regional Weather Roundup
Issued by NWS

Home | Current Version | Previous Version | Text Only | Print | Product List | Glossary Off
Versions: 1 2 3 4 5 6 7 8 9 10 11 12 13 14 15 16 17 18 19 20 21 22 23 24 25 26 27 28 29 30 31 32 33 34 35 36 37 38 39 40 41 42 43 44 45 46 47 48 49 50

000
ASUS45 KSLC 222110
RWRUT

UTAH REGIONAL WEATHER ROUNDUP
NATIONAL WEATHER SERVICE SALT LAKE CITY UT
300 PM MDT MON SEP 22 2014

UTZ001>011-023>025-222200-

NORTHERN UTAH

CITY           SKY/WX    TMP DP  RH WIND       PRES   REMARKS
HILL AFB       PTSUNNY   72  48  42 SW6       30.16F
LOGAN          SUNNY     73  49  42 CALM      30.13F
OGDEN          CLOUDY    72  45  37 SW7       30.14F
PROVO AIRPORT  PTSUNNY   73  52  46 NE3       30.16F
SALT LAKE CITY PTSUNNY   73  50  44 SW3       30.12F
VERNAL         MOSUNNY   70  54  56 SW7       30.17F
WENDOVER       MOSUNNY   72  52  49 E6        30.13F
HEBER CITY     CLOUDY    70  45  40 SW10      30.19S
WEST JORDAN    CLOUDY    72  52  49 W3        30.15S

$$

UTZ012>022-026-027-222200-

SOUTHERN UTAH

CITY           SKY/WX    TMP DP  RH WIND       PRES   REMARKS
BRYCE CANYON   SUNNY     68  43  40 SE12      30.34F
CEDAR CITY     SUNNY     77  40  26 SW10G20   30.21F
MILFORD        MOSUNNY   79  45  29 S16       30.15F
MOAB/CYNLANDS  SUNNY     79  56  45 VRB6      30.13F
PRICE          CLOUDY    68  53  58 S3        30.22F
ST GEORGE      MOCLDY    88  45  22 W7        30.06F
KANAB            N/A     79  43  27 SW7       30.22F

$$

REGIONAL REPORTS     COLORADO/ARIZONA

CITY           SKY/WX    TMP DP  RH WIND       PRES   REMARKS
CRAIG, CO      PTSUNNY   68  48  48 NW7       30.21F
GRAND JUNCTION SUNNY     74  55  51 VRB6      30.15F
RIFLE          MOSUNNY   70  53  54 SW5       30.20F
MONTROSE       MOSUNNY   73  55  53 N10       30.22F
CORTEZ         MOSUNNY   78  53  41 SW13      30.25F
PAGE, AZ       SUNNY     85  40  20 CALM      30.13F
GRAND CANYON   PTSUNNY   74  42  31 S8        30.30F
KINGMAN        SUNNY     88  41  19 MISG      30.08F
FLAGSTAFF      SUNNY     73  46  38 SW16      30.33F

$$

REGIONAL REPORTS    NEVADA/IDAHO/WYOMING

CITY           SKY/WX    TMP DP  RH WIND       PRES   REMARKS
LAS VEGAS, NV  MOSUNNY   94  44  17 SE12      29.95F HX  90
ELY            PTSUNNY   70  46  42 S10       30.23F
ELKO           PTSUNNY   76  45  33 W9G18     30.14F
POCATELLO, ID  MOSUNNY   72  53  51 W9        30.12F
BURLEY         PTSUNNY   71  46  40 W7        30.10S
EVANSTON, WY   PTSUNNY   66  40  38 W17G23    30.25F
ROCK SPRINGS   PTSUNNY   68  45  43 W14       30.21F

$$



USA.gov is the U.S. government's official web portal to all federal, state and local government web resources and services.